Find Starlink 37705

NORAD ID: 100273 Int'l Des: 2026-183 Owner: SPXS Country: US Constellation: starlink operational

Current View

Loading 3D Globe...

About Starlink 37705

Starlink 37705 (NORAD 100273) is a starlink constellation satellite launched Aug 11, 2026 by SPXS of US. with a mass of 575.00 kg.

Upcoming Passes

Passes for default location (London). Set your location on the main map for personalized predictions.

Altitude History

Loading altitude history...

Two-Line Element Set

1 A0273U 26183B 26254.59653454 -.00916529 00000-0 -69941-2 0 9997
2 A0273 53.1574 301.3956 0000560 106.2439 253.8643 15.74112189 4905
Epoch: Sep 11, 2026 • Age: 9 hours

Current Status

Altitude 367.9 km
Apogee / Perigee N/A
Velocity 7.69 km/s
Sub-Earth Point -52.55°S, 114.68°W
Launch Date Aug 11, 2026
Age 31 days
Type internet

Technical Details

Classification Payload
Mass 575.00 kg
Dry Mass 530.00 kg
Total Mass 575.00 kg
Length 0.30 m
Diameter 4.10 m
Span 29.00 m
Shape Box + pan
Manufacturer SPXS
Bus Type Starlink V2MO
Phase Status In Orbit
Owner/State SPXS/US

Most Searched